SCP
0 0 0 0 0 0 0 0 0 0 0 0 0 0 0 0 0 0 0 0 0 0 0 0 0 0 0 0 0 0 0 0 0 0 0 0 0 0
0 0 0 0 0 0 0 0 0 0 0 0 0 0 0 0 0 0 0 0 0 0 0 0 0 0 0 0 0 0 0 0 0 0 0 0 0 0
0 0 0 0 0 0 0 0 0 0 0 0 0 0 0 0 0 0 0 0 0 0 0 0 0 0 0 0 0 0 0 0 0 0 0 0 0 0
0 0 0 0 0 0 0 0 0 0 0 0 0 0 0 0 0 0 0 0 0 0 0 0 0 0 0 0 0 0 0 0 0 0 0 0 0 0
0 0 0 0 0 0 0 0 0 0 0 0 0 0 0 0 0 0 0 0 0 0 0 0 0 0 0 0 0 0 0 0 0 0 0 0 0 0
0 0 0 0 0 0 0 0 0 0 0 0 0 0 0 0 0 0 0 0 0 0 0 0 0 0 0 0 0 0 0 0 0 0 0 0 0 0
0 0 0 0 0 0 0 0 0 0 0 0 0 0 0 0 0 0 0 0 0 0 0 0 0 0 0 0 0 0 0 0 0 0 0 0 0 0
0 0 0 0 0 0 0 0 0 0 0 0 0 0 0 0 0 0 0 0 0 0 0 0 -0 0 0 0 0 0 0 0 0 0 0 0 0 0
0 0 0 0 0 0 0 0 0 0 -0 -0 0 0 0 0 0 0 0 0 0 -0 -0 -0 0 -0 -0 0 -0 -0 -0 -0 -0 -0 0 0 0 -0
-0 0 0 0 0 0 0 0 -0 -0 -0 -0 -0 0 -0 -0 -0 -0 0 0 0 0 -0 0 0 -0 -0 0 -0 0 0 -0 -0 0 -0 -0 -0 -0
-0 -0 0 0 -0 0 0 -0 -0 0 -0 -0 -0 -0 -0 -0 -0 0 0 0 0 0 -0 0 0 0 0 0 -0 0 0 0 -0 -0 0 0 -0 0
0 -0 -0 -0 0 -0 0 0 -0 0 0 0 0 0 0 0 0 0 0 0 0 0 0 0 0 0 0 0 -0 0 0 0 0 0 0 -0 -0 -0
-0 -0 0 -0 -0 -0 0 0 0 0 -0 -0 0 0 0 0 -0 -0 -0 0 0 0 0 0 0 0 0 0 0 0 0 0 0 0 0 0 0 0
0 0 0 0 0 0 0 0 0 0 -0 -0 0 0 0 0 0 0 0 0 0 0 0 0 0 0 0 0 0 0 0 0 0 0 0 0 0 0
0 0 0 0 0 0 0 0 0 0 0 0 0 0 0 0 0 0 0 0 0 0 0 0 0 0 0 0 0 0 0 0 0 0 0 0 0 0
0 0 0 0 0 0 0 0 0 0 0 0 0 0 0 0 0 0 0 0 0 0 0 0 0 0 0 0 0 0 0 0 0 0 0 0 0 0
0 0 0 0 0 0 0 0 0 0 0 0 0 0 0 0 0 0 0 0 0 0 0 0 0 0 0 0 0 0 0 0 0 0 0 0 0 0
0 0 0 0 0 0 0 0 0 0 0 0 0 0 0 0 0 0 0 0 0 0 0 0 0 0 0 0 -0 0 0 0 0 0 0 0 0 0
0 0 0 0 0 0 0 0 0 0 0 0 0 0 0 0 0 0 0 0 0 0 0 0 0 0 0 0 0 -0 0 0 0 0 0 0 0 0
0 0 0 0 0 0 0 0 0 0 0 0 0 0 0 0 0 0 0 0 0 0 0 0 0 0 0 0 0 0 -0 0 0 0 0 0 0 0
0 0 0 0 0 0 0 0 0 0 0 0 0 0 0 0 0 0 0 0 0 0 0 0 0 0 0 0 0 0 0 0 0 0 0 0 0 0
0 0 0 0 0 0 0 0 0 0 0 0 0 0 0 0 0 0 0 0 0 0 0 0 0 0 0 0 0 0 0 0 -0 0 0 0 0 0
0 0 0 0 0 0 0 0 0 0 0 0 0 0 0 0 0 0 0 0 0 0 -0 -0 0 0 0 0 0 0 0 0 0 0 0 0 -0 -0
Wind_Speed_500mb
21 23 23 23 25 28 28 27 20 13 13 19 15 19 18 19 19 21 25 27 29 29 29 30 35 45 56 60 62 61 66 66 67 70 66 63 58 53
15 17 21 25 24 20 19 17 15 6 11 9 12 21 25 25 29 29 34 37 42 43 47 48 51 55 59 62 64 65 64 65 70 71 68 71 75 68
24 21 18 17 18 18 15 13 13 12 9 9 16 25 29 34 37 40 45 49 51 58 58 58 59 62 63 62 64 64 64 65 68 71 75 77 75 80
17 26 28 23 23 18 12 5 5 9 4 5 17 18 29 37 43 46 51 51 54 51 54 53 55 60 67 73 76 75 73 72 70 70 70 71 72 70
28 31 29 22 18 12 13 17 19 18 17 11 8 16 18 23 20 22 26 30 29 30 27 26 26 24 29 39 42 41 37 36 39 45 44 43 44 46
19 20 27 29 28 27 19 15 11 7 5 3 4 5 6 11 12 13 14 20 17 12 16 11 8 10 9 5 11 16 21 23 27 30 33 34 34 34
22 16 19 14 15 14 6 7 10 9 11 9 10 10 10 9 8 11 19 18 10 4 4 5 8 6 7 8 9 8 11 18 25 31 35 37 35 33
20 19 17 14 11 11 19 21 22 17 16 13 11 8 10 9 11 15 15 18 3 8 3 8 10 11 10 9 8 9 15 21 28 30 32 32 31 36
19 20 20 19 20 23 29 28 27 22 17 14 11 9 10 9 7 12 17 9 4 6 4 5 10 12 12 7 10 16 19 26 31 34 34 36 35 38
26 26 26 32 32 32 23 20 17 15 13 12 9 8 10 8 8 11 13 15 11 6 3 7 12 8 8 13 23 30 30 22 24 28 30 37 41 40
30 36 35 34 30 24 22 19 17 16 14 11 11 11 13 11 9 11 12 9 8 6 6 9 8 12 8 12 24 28 18 17 13 9 8 7 7 19
36 38 34 30 26 23 19 19 17 16 15 12 9 9 11 13 8 4 5 4 4 5 12 10 11 13 8 13 25 19 18 21 17 10 8 8 8 9
34 33 29 25 22 19 18 21 23 17 15 13 12 13 11 11 6 5 4 2 1 4 11 4 9 14 10 14 14 18 20 20 20 17 9 8 15 18
31 28 24 26 27 27 25 22 20 18 14 14 14 15 16 13 8 5 5 4 6 9 11 10 11 14 8 8 9 21 23 21 20 20 19 20 25 24
35 35 33 32 31 27 25 24 23 20 18 20 18 15 10 4 4 6 6 8 9 9 11 11 10 9 15 19 23 30 30 32 33 36 39 36 33 29
31 29 28 28 30 28 27 26 25 24 22 18 13 10 10 13 12 11 11 13 13 19 22 27 27 23 28 36 39 38 33 32 46 55 62 62 58 52
43 43 40 39 36 36 40 37 28 24 26 25 23 16 13 15 18 16 16 17 22 25 29 31 32 32 34 35 40 39 39 41 45 53 58 63 60 55
46 44 44 44 43 39 41 42 47 38 29 30 26 24 22 20 21 22 24 25 26 25 24 28 36 40 41 44 40 41 41 43 44 46 52 57 57 51
47 50 48 37 29 35 32 39 39 40 42 38 33 31 30 27 26 25 24 25 28 28 25 20 20 32 42 47 38 35 36 35 37 39 42 45 45 42
54 46 46 46 51 49 23 25 31 30 37 38 42 33 31 30 31 30 29 29 29 28 28 25 25 26 33 42 42 33 26 28 28 30 32 34 38 38
53 52 52 51 52 48 44 38 18 24 29 29 33 37 33 25 23 21 23 24 24 24 27 26 24 25 32 36 35 31 29 27 24 24 28 26 25 22
50 50 49 47 44 42 42 41 29 23 18 19 20 21 22 22 21 18 13 13 15 16 18 20 22 24 25 26 27 29 31 33 30 25 23 14 10 15
52 50 50 50 45 36 34 37 34 32 25 22 22 23 23 19 16 11 10 9 14 15 16 23 27 24 25 23 29 31 30 30 28 34 42 42 41 40
Wind_Direction_500mb
238 227 214 203 188 190 195 197 200 174 194 216 222 236 242 246 247 247 246 250 251 247 249 252 253 251 251 254 260 262 263 262 260 255 245 242 251 258
212 195 180 174 172 177 178 188 207 214 229 200 218 234 240 244 249 252 259 261 259 261 263 260 259 257 255 253 250 249 251 253 255 253 247 256 257 260
203 198 190 181 174 170 178 192 213 224 235 240 233 245 250 253 259 263 267 268 272 269 272 271 271 270 267 261 257 255 253 251 247 252 259 262 263 269
137 146 146 141 148 133 126 138 239 247 241 239 254 266 260 266 271 275 277 278 277 281 279 278 275 273 270 267 266 266 265 265 265 267 269 272 270 267
69 59 66 56 52 36 351 329 310 290 275 261 268 279 281 284 295 301 299 296 296 292 296 296 293 293 286 269 264 268 267 267 269 268 267 267 267 266
33 11 358 341 354 352 336 319 303 314 313 3 32 346 346 328 343 346 341 330 317 324 319 321 337 354 346 296 266 261 258 261 262 261 259 261 264 260
36 41 38 23 11 1 32 66 57 51 52 56 52 46 24 39 33 4 1 359 349 328 57 32 2 8 338 326 333 314 280 273 267 264 262 262 260 262
31 28 18 24 32 69 76 72 67 66 66 60 50 45 53 54 34 14 29 25 46 343 237 23 10 1 349 310 308 321 301 290 275 274 264 257 251 255
29 50 67 77 87 85 79 74 67 64 65 64 56 58 69 46 47 39 15 17 53 18 103 26 352 339 346 347 319 326 306 291 281 267 262 259 260 249
78 77 77 85 91 90 81 60 42 33 42 57 67 51 104 104 62 69 52 77 84 107 37 19 0 325 312 331 330 320 308 300 299 276 263 260 254 250
75 82 84 82 78 66 54 50 48 44 44 68 72 79 133 122 104 60 66 99 91 86 334 327 355 351 308 315 327 339 344 329 324 318 314 293 241 232
76 81 78 71 61 56 51 51 54 55 57 61 72 99 134 129 138 67 3 11 335 300 329 340 344 3 310 322 345 8 14 27 24 16 39 75 98 132
73 70 62 56 51 48 50 57 59 63 80 87 90 83 101 153 191 190 175 215 278 320 319 10 348 349 351 326 1 33 37 35 30 39 40 106 115 117
65 58 53 56 59 58 62 60 54 65 62 78 92 109 108 108 103 91 97 89 36 38 21 9 359 353 3 30 55 54 50 46 49 54 53 75 126 122
62 67 62 62 60 58 57 58 53 54 66 73 80 75 66 124 68 86 83 68 60 54 20 20 25 67 90 89 80 75 72 68 74 76 78 85 106 126
57 58 56 62 61 59 53 51 52 56 59 61 62 66 74 91 105 99 88 75 72 65 66 65 68 89 94 88 87 82 86 91 86 85 84 85 88 91
61 66 63 62 60 60 60 54 56 59 60 54 57 73 92 90 91 86 80 80 86 87 85 85 85 89 91 93 89 84 89 90 93 94 90 88 86 85
60 59 61 58 61 66 59 58 62 59 51 52 57 67 80 85 87 88 89 88 88 87 92 101 99 92 89 85 86 91 91 91 91 89 90 87 86 84
57 50 43 39 45 55 52 56 53 50 50 57 57 66 71 78 83 87 90 93 93 93 93 97 107 110 101 90 87 85 91 98 98 89 83 80 83 82
50 47 42 40 39 34 30 47 52 41 47 51 53 61 64 71 78 82 86 92 96 96 96 95 99 101 104 99 91 80 82 90 87 89 82 78 81 80
43 41 38 38 35 37 37 41 44 48 60 58 49 51 55 64 71 77 85 91 96 101 100 94 88 94 100 96 89 89 81 78 76 79 81 67 68 77
33 29 27 26 25 29 33 34 38 40 31 27 21 33 46 50 52 55 83 100 103 107 105 100 98 103 104 90 93 93 89 79 68 64 68 91 103 95
27 26 24 21 18 22 29 33 35 32 45 45 39 43 47 41 63 54 65 100 118 109 105 111 109 115 101 97 100 95 89 90 86 84 81 77 79 81
Wind_Speed_850mb
21 23 23 23 25 28 28 27 20 13 13 19 15 19 18 19 19 21 25 27 29 29 29 30 35 45 56 60 62 61 66 66 67 70 66 63 58 53
15 17 21 25 24 20 19 17 15 6 11 9 12 21 25 25 29 29 34 37 42 43 47 48 51 55 59 62 64 65 64 65 70 71 68 71 75 68
24 21 18 17 18 18 15 13 13 12 9 9 16 25 29 34 37 40 45 49 51 58 58 58 59 62 63 62 64 64 64 65 68 71 75 77 75 80
17 26 28 23 23 18 12 5 5 9 4 5 17 18 29 37 43 46 51 51 54 51 54 53 55 60 67 73 76 75 73 72 70 70 70 71 72 70
28 31 29 22 18 12 13 17 19 18 17 11 8 16 18 23 20 22 26 30 29 30 27 26 26 24 29 39 42 41 37 36 39 45 44 43 44 46
19 20 27 29 28 27 19 15 11 7 5 3 4 5 6 11 12 13 14 20 17 12 16 11 8 10 9 5 11 16 21 23 27 30 33 34 34 34
22 16 19 14 15 14 6 7 10 9 11 9 10 10 10 9 8 11 19 18 10 4 4 5 8 6 7 8 9 8 11 18 25 31 35 37 35 33
20 19 17 14 11 11 19 21 22 17 16 13 11 8 10 9 11 15 15 18 3 8 3 8 10 11 10 9 8 9 15 21 28 30 32 32 31 36
19 20 20 19 20 23 29 28 27 22 17 14 11 9 10 9 7 12 17 9 4 6 4 5 10 12 12 7 10 16 19 26 31 34 34 36 35 38
26 26 26 32 32 32 23 20 17 15 13 12 9 8 10 8 8 11 13 15 11 6 3 7 12 8 8 13 23 30 30 22 24 28 30 37 41 40
30 36 35 34 30 24 22 19 17 16 14 11 11 11 13 11 9 11 12 9 8 6 6 9 8 12 8 12 24 28 18 17 13 9 8 7 7 19
36 38 34 30 26 23 19 19 17 16 15 12 9 9 11 13 8 4 5 4 4 5 12 10 11 13 8 13 25 19 18 21 17 10 8 8 8 9
34 33 29 25 22 19 18 21 23 17 15 13 12 13 11 11 6 5 4 2 1 4 11 4 9 14 10 14 14 18 20 20 20 17 9 8 15 18
31 28 24 26 27 27 25 22 20 18 14 14 14 15 16 13 8 5 5 4 6 9 11 10 11 14 8 8 9 21 23 21 20 20 19 20 25 24
35 35 33 32 31 27 25 24 23 20 18 20 18 15 10 4 4 6 6 8 9 9 11 11 10 9 15 19 23 30 30 32 33 36 39 36 33 29
31 29 28 28 30 28 27 26 25 24 22 18 13 10 10 13 12 11 11 13 13 19 22 27 27 23 28 36 39 38 33 32 46 55 62 62 58 52
43 43 40 39 36 36 40 37 28 24 26 25 23 16 13 15 18 16 16 17 22 25 29 31 32 32 34 35 40 39 39 41 45 53 58 63 60 55
46 44 44 44 43 39 41 42 47 38 29 30 26 24 22 20 21 22 24 25 26 25 24 28 36 40 41 44 40 41 41 43 44 46 52 57 57 51
47 50 48 37 29 35 32 39 39 40 42 38 33 31 30 27 26 25 24 25 28 28 25 20 20 32 42 47 38 35 36 35 37 39 42 45 45 42
54 46 46 46 51 49 23 25 31 30 37 38 42 33 31 30 31 30 29 29 29 28 28 25 25 26 33 42 42 33 26 28 28 30 32 34 38 38
53 52 52 51 52 48 44 38 18 24 29 29 33 37 33 25 23 21 23 24 24 24 27 26 24 25 32 36 35 31 29 27 24 24 28 26 25 22
50 50 49 47 44 42 42 41 29 23 18 19 20 21 22 22 21 18 13 13 15 16 18 20 22 24 25 26 27 29 31 33 30 25 23 14 10 15
52 50 50 50 45 36 34 37 34 32 25 22 22 23 23 19 16 11 10 9 14 15 16 23 27 24 25 23 29 31 30 30 28 34 42 42 41 40
Wind_Direction_850mb
238 227 214 203 188 190 195 197 200 174 194 216 222 236 242 246 247 247 246 250 251 247 249 252 253 251 251 254 260 262 263 262 260 255 245 242 251 258
212 195 180 174 172 177 178 188 207 214 229 200 218 234 240 244 249 252 259 261 259 261 263 260 259 257 255 253 250 249 251 253 255 253 247 256 257 260
203 198 190 181 174 170 178 192 213 224 235 240 233 245 250 253 259 263 267 268 272 269 272 271 271 270 267 261 257 255 253 251 247 252 259 262 263 269
137 146 146 141 148 133 126 138 239 247 241 239 254 266 260 266 271 275 277 278 277 281 279 278 275 273 270 267 266 266 265 265 265 267 269 272 270 267
69 59 66 56 52 36 351 329 310 290 275 261 268 279 281 284 295 301 299 296 296 292 296 296 293 293 286 269 264 268 267 267 269 268 267 267 267 266
33 11 358 341 354 352 336 319 303 314 313 3 32 346 346 328 343 346 341 330 317 324 319 321 337 354 346 296 266 261 258 261 262 261 259 261 264 260
36 41 38 23 11 1 32 66 57 51 52 56 52 46 24 39 33 4 1 359 349 328 57 32 2 8 338 326 333 314 280 273 267 264 262 262 260 262
31 28 18 24 32 69 76 72 67 66 66 60 50 45 53 54 34 14 29 25 46 343 237 23 10 1 349 310 308 321 301 290 275 274 264 257 251 255
29 50 67 77 87 85 79 74 67 64 65 64 56 58 69 46 47 39 15 17 53 18 103 26 352 339 346 347 319 326 306 291 281 267 262 259 260 249
78 77 77 85 91 90 81 60 42 33 42 57 67 51 104 104 62 69 52 77 84 107 37 19 0 325 312 331 330 320 308 300 299 276 263 260 254 250
75 82 84 82 78 66 54 50 48 44 44 68 72 79 133 122 104 60 66 99 91 86 334 327 355 351 308 315 327 339 344 329 324 318 314 293 241 232
76 81 78 71 61 56 51 51 54 55 57 61 72 99 134 129 138 67 3 11 335 300 329 340 344 3 310 322 345 8 14 27 24 16 39 75 98 132
73 70 62 56 51 48 50 57 59 63 80 87 90 83 101 153 191 190 175 215 278 320 319 10 348 349 351 326 1 33 37 35 30 39 40 106 115 117
65 58 53 56 59 58 62 60 54 65 62 78 92 109 108 108 103 91 97 89 36 38 21 9 359 353 3 30 55 54 50 46 49 54 53 75 126 122
62 67 62 62 60 58 57 58 53 54 66 73 80 75 66 124 68 86 83 68 60 54 20 20 25 67 90 89 80 75 72 68 74 76 78 85 106 126
57 58 56 62 61 59 53 51 52 56 59 61 62 66 74 91 105 99 88 75 72 65 66 65 68 89 94 88 87 82 86 91 86 85 84 85 88 91
61 66 63 62 60 60 60 54 56 59 60 54 57 73 92 90 91 86 80 80 86 87 85 85 85 89 91 93 89 84 89 90 93 94 90 88 86 85
60 59 61 58 61 66 59 58 62 59 51 52 57 67 80 85 87 88 89 88 88 87 92 101 99 92 89 85 86 91 91 91 91 89 90 87 86 84
57 50 43 39 45 55 52 56 53 50 50 57 57 66 71 78 83 87 90 93 93 93 93 97 107 110 101 90 87 85 91 98 98 89 83 80 83 82
50 47 42 40 39 34 30 47 52 41 47 51 53 61 64 71 78 82 86 92 96 96 96 95 99 101 104 99 91 80 82 90 87 89 82 78 81 80
43 41 38 38 35 37 37 41 44 48 60 58 49 51 55 64 71 77 85 91 96 101 100 94 88 94 100 96 89 89 81 78 76 79 81 67 68 77
33 29 27 26 25 29 33 34 38 40 31 27 21 33 46 50 52 55 83 100 103 107 105 100 98 103 104 90 93 93 89 79 68 64 68 91 103 95
27 26 24 21 18 22 29 33 35 32 45 45 39 43 47 41 63 54 65 100 118 109 105 111 109 115 101 97 100 95 89 90 86 84 81 77 79 81